Home   Weather   Rodgau   Past weeks

Flag for Germany Past Weather in Rodgau, Hesse, Germany — Yesterday and Last 2 Weeks

Now
36 °F

Clear.


Feels Like: 32 °F
Forecast: 37 / 51 °F
Wind: 5 mph from Southwest

Location: Frankfurt-M-Flughafen Airport

Current Time: Apr 24, 2017 at 2:10:18 am

Latest Report: Apr 24, 2017 at 1:20 am


Visibility: 10 mi

Pressure: 30.21 "Hg

Humidity: 81%

Dew Point: 30 °F

Location of RodgauLocation

Past Weather in Rodgau — Graph

°F

Rodgau Temperature Yesterday

Maximum temperature yesterday: 54 °F (at 4:50 pm)
Minimum temperature yesterday: 39 °F (at 4:50 am)
Average temperature yesterday: 46 °F

High & Low Weather Summary for the Past Weeks

 TemperatureHumidityPressure
High73 °F (Apr 9, 5:50 pm)100% (Apr 17, 10:20 am)30.60 "Hg (Apr 17, 10:20 am)
Low27 °F (Apr 20, 4:20 am)29% (Apr 9, 5:50 pm)29.89 "Hg (Apr 12, 6:20 pm)
Average48 °F62%30.18 "Hg
* Reported Apr 9 12:20 am — Apr 24 12:50 am, Rodgau, Weather by CustomWeather, © 2017

Note: Actual official high and low records may vary slightly from our data, if they occured in-between our weather recording intervals... More about our weather records

Advertising

Rodgau Weather History for the Previous 24 Hours

Scroll right to see more
 ConditionsComfort  
Time TempWeatherWind HumidityBarometerVisibility
12:50 am
Mon, Apr 24
37 °FClear.2 mph81%30.21 "Hg10 mi
12:20 am39 °FClear.1 mph75%30.21 "Hg10 mi
11:50 pm
Sun, Apr 23
41 °FPassing clouds.3 mph70%30.21 "HgN/A
10:50 pm45 °FPassing clouds.6 mph61%30.24 "HgN/A
10:20 pm43 °FClear.6 mph66%30.24 "Hg10 mi
9:50 pm43 °FPassing clouds.6 mph66%30.24 "HgN/A
8:50 pm46 °FClear.6 mph53%30.24 "Hg10 mi
8:20 pm48 °FSunny.8 mph50%30.24 "Hg10 mi
7:50 pm50 °FSunny.9 mph47%30.24 "Hg10 mi
7:20 pm50 °FPassing clouds.10 mph43%30.21 "HgN/A
6:50 pm52 °FSunny.10 mph41%30.21 "Hg10 mi
6:20 pm52 °FPassing clouds.8 mph38%30.21 "HgN/A
5:50 pm52 °FSunny.9 mph38%30.21 "Hg10 mi
5:20 pm52 °FPassing clouds.8 mph38%30.24 "HgN/A
4:50 pm54 °FSunny.10 mph38%30.24 "Hg10 mi
4:20 pm52 °FPassing clouds.12 mph41%30.24 "HgN/A
3:50 pm50 °FPassing clouds.7 mph43%30.24 "HgN/A
3:20 pm50 °FBroken clouds.7 mph40%30.24 "HgN/A
2:50 pm50 °FPartly sunny.7 mph43%30.24 "HgN/A
1:50 pm48 °FPartly sunny.12 mph46%30.27 "HgN/A
1:20 pm48 °FPartly sunny.9 mph46%30.27 "HgN/A
12:50 pm46 °FPartly sunny.10 mph53%30.27 "HgN/A
12:20 pm46 °FPartly sunny.8 mph53%30.27 "HgN/A
11:50 am46 °FPartly sunny.7 mph57%30.27 "HgN/A
11:20 am45 °FBroken clouds.8 mph61%30.27 "HgN/A
10:50 am45 °FBroken clouds.8 mph61%30.27 "HgN/A
10:20 am45 °FScattered clouds.10 mph61%30.27 "HgN/A
9:50 am45 °FScattered clouds.9 mph61%30.27 "HgN/A
9:20 am45 °FScattered clouds.9 mph61%30.27 "HgN/A
8:50 am43 °FScattered clouds.12 mph66%30.27 "HgN/A
8:20 am43 °FScattered clouds.13 mph66%30.27 "HgN/A
7:50 am43 °FScattered clouds.8 mph66%30.27 "HgN/A
7:20 am41 °FScattered clouds.8 mph70%30.27 "HgN/A
6:50 am39 °FScattered clouds.9 mph70%30.24 "HgN/A
6:20 am41 °FScattered clouds.7 mph66%30.24 "HgN/A
5:50 am39 °FPassing clouds.9 mph70%30.24 "HgN/A
4:50 am39 °FClear.7 mph70%30.24 "Hg10 mi
4:20 am41 °FClear.9 mph66%30.24 "Hg10 mi
3:50 am41 °FPassing clouds.10 mph66%30.24 "HgN/A
3:20 am41 °FPassing clouds.5 mph66%30.24 "HgN/A
2:50 am43 °FPassing clouds.9 mph61%30.21 "HgN/A
2:20 am43 °FPassing clouds.8 mph61%30.24 "HgN/A
Weather by CustomWeather, © 2017

See weather overviewHow to use our weather pages